Time,TemperatureF,DewpointF,PressureIn,WindDirection,WindDirectionDegrees,WindSpeedMPH,WindSpeedGustMPH,Humidity,HourlyPrecipIn,Conditions,Clouds,dailyrainin,SoftwareType,DateUTC
2013-04-19 00:03:00,70.0,66.0,-100.00,ESE,115,1.0,8.0,87,-99.99,,,-99.99,,2013-04-19 04:03:00,
2013-04-19 00:13:00,70.0,65.0,-100.00,South,180,3.0,10.0,86,-99.99,,,-99.99,,2013-04-19 04:13:00,
2013-04-19 00:23:00,70.0,65.0,-100.00,SE,125,5.0,11.0,86,-99.99,,,-99.99,,2013-04-19 04:23:00,
2013-04-19 00:33:00,69.0,65.0,-100.00,SSE,165,2.0,10.0,86,-99.99,,,-99.99,,2013-04-19 04:33:00,
2013-04-19 00:43:00,69.0,65.0,-100.00,South,185,5.0,11.0,87,-99.99,,,-99.99,,2013-04-19 04:43:00,
2013-04-19 00:52:00,69.0,65.0,-100.00,ESE,110,3.0,10.0,87,-99.99,,,-99.99,,2013-04-19 04:52:00,
2013-04-19 01:03:00,68.0,64.0,-100.00,SSE,150,3.0,10.0,87,-99.99,,,-99.99,,2013-04-19 05:03:00,
2013-04-19 01:12:00,68.0,64.0,-100.00,SSE,150,3.0,10.0,87,-99.99,,,-99.99,,2013-04-19 05:12:00,
2013-04-19 01:22:00,68.0,65.0,-100.00,SE,130,2.0,9.0,88,-99.99,,,-99.99,,2013-04-19 05:22:00,
2013-04-19 01:32:00,68.0,64.0,-100.00,SSW,200,4.0,9.0,88,-99.99,,,-99.99,,2013-04-19 05:32:00,
2013-04-19 01:42:00,68.0,64.0,-100.00,South,170,3.0,11.0,88,-99.99,,,-99.99,,2013-04-19 05:42:00,
2013-04-19 01:52:00,68.0,64.0,-100.00,South,185,2.0,9.0,88,-99.99,,,-99.99,,2013-04-19 05:52:00,
2013-04-19 02:02:00,68.0,64.0,-100.00,SSW,195,5.0,11.0,88,-99.99,,,-99.99,,2013-04-19 06:02:00,
2013-04-19 02:12:00,68.0,64.0,-100.00,SSE,150,2.0,11.0,89,-99.99,,,-99.99,,2013-04-19 06:12:00,
2013-04-19 02:22:00,67.0,64.0,-100.00,SSE,155,5.0,11.0,89,-99.99,,,-99.99,,2013-04-19 06:22:00,
2013-04-19 02:32:00,67.0,64.0,-100.00,SSW,200,1.0,11.0,90,-99.99,,,-99.99,,2013-04-19 06:32:00,
2013-04-19 02:42:00,67.0,65.0,-100.00,South,170,6.0,11.0,91,-99.99,,,-99.99,,2013-04-19 06:42:00,
2013-04-19 02:52:00,67.0,64.0,-100.00,SSW,200,6.0,14.0,91,-99.99,,,-99.99,,2013-04-19 06:52:00,
2013-04-19 03:02:00,67.0,65.0,-100.00,South,180,5.0,9.0,92,-99.99,,,-99.99,,2013-04-19 07:02:00,
2013-04-19 03:12:00,67.0,65.0,-100.00,SSW,210,2.0,11.0,93,-99.99,,,-99.99,,2013-04-19 07:12:00,
2013-04-19 03:21:00,67.0,65.0,-100.00,SSW,195,6.0,12.0,93,-99.99,,,-99.99,,2013-04-19 07:21:00,
2013-04-19 03:32:00,67.0,65.0,-100.00,SSW,195,6.0,12.0,93,-99.99,,,-99.99,,2013-04-19 07:32:00,
2013-04-19 03:42:00,67.0,65.0,-100.00,South,180,5.0,14.0,95,-99.99,,,-99.99,,2013-04-19 07:42:00,
2013-04-19 03:52:00,67.0,66.0,-100.00,SSW,195,4.0,10.0,96,-99.99,,,-99.99,,2013-04-19 07:52:00,
2013-04-19 04:02:00,67.0,66.0,-100.00,SW,220,1.0,12.0,96,-99.99,,,-99.99,,2013-04-19 08:02:00,
2013-04-19 04:12:00,67.0,66.0,-100.00,SSW,200,4.0,10.0,97,-99.99,,,-99.99,,2013-04-19 08:12:00,
2013-04-19 04:22:00,67.0,66.0,-100.00,SSE,155,4.0,11.0,98,-99.99,,,-99.99,,2013-04-19 08:22:00,
2013-04-19 04:33:00,66.0,66.0,-100.00,SSW,210,1.0,5.0,98,-99.99,,,-99.99,,2013-04-19 08:33:00,
2013-04-19 04:42:00,66.0,66.0,-100.00,SSW,210,4.0,9.0,99,-99.99,,,-99.99,,2013-04-19 08:42:00,
2013-04-19 04:52:00,66.0,66.0,-100.00,SSW,200,4.0,9.0,99,-99.99,,,-99.99,,2013-04-19 08:52:00,
2013-04-19 05:01:00,66.0,66.0,-100.00,SE,140,3.0,8.0,99,-99.99,,,-99.99,,2013-04-19 09:01:00,
2013-04-19 05:12:00,66.0,66.0,-100.00,South,190,1.0,4.0,99,-99.99,,,-99.99,,2013-04-19 09:12:00,
2013-04-19 05:21:00,66.0,66.0,-100.00,SW,215,2.0,8.0,99,-99.99,,,-99.99,,2013-04-19 09:21:00,
2013-04-19 05:33:00,66.0,66.0,-100.00,SSW,200,7.0,12.0,99,-99.99,,,-99.99,,2013-04-19 09:33:00,
2013-04-19 05:43:00,66.0,66.0,-100.00,SSW,200,2.0,9.0,99,-99.99,,,-99.99,,2013-04-19 09:43:00,
2013-04-19 05:52:00,66.0,66.0,-100.00,SW,215,4.0,9.0,99,-99.99,,,-99.99,,2013-04-19 09:52:00,
2013-04-19 06:02:00,67.0,66.0,-100.00,SSW,200,2.0,7.0,99,-99.99,,,-99.99,,2013-04-19 10:02:00,
2013-04-19 06:13:00,67.0,66.0,-100.00,SW,215,6.0,15.0,99,-99.99,,,-99.99,,2013-04-19 10:13:00,
2013-04-19 06:23:00,67.0,66.0,-100.00,SSW,195,2.0,9.0,99,-99.99,,,-99.99,,2013-04-19 10:23:00,
2013-04-19 06:33:00,67.0,66.0,-100.00,South,190,2.0,7.0,99,-99.99,,,-99.99,,2013-04-19 10:33:00,
2013-04-19 06:42:00,67.0,66.0,-100.00,South,190,2.0,10.0,99,-99.99,,,-99.99,,2013-04-19 10:42:00,
2013-04-19 06:52:00,67.0,66.0,-100.00,South,180,2.0,8.0,99,-99.99,,,-99.99,,2013-04-19 10:52:00,
2013-04-19 07:03:00,67.0,66.0,-100.00,South,180,2.0,9.0,99,-99.99,,,-99.99,,2013-04-19 11:03:00,
2013-04-19 07:11:00,67.0,66.0,-100.00,SSW,200,3.0,6.0,99,-99.99,,,-99.99,,2013-04-19 11:11:00,
2013-04-19 07:22:00,67.0,66.0,-100.00,South,185,5.0,9.0,99,-99.99,,,-99.99,,2013-04-19 11:22:00,
2013-04-19 07:32:00,67.0,66.0,-100.00,SSW,195,4.0,10.0,99,-99.99,,,-99.99,,2013-04-19 11:32:00,
2013-04-19 07:42:00,67.0,66.0,-100.00,SSE,165,4.0,11.0,99,-99.99,,,-99.99,,2013-04-19 11:42:00,
2013-04-19 07:52:00,67.0,66.0,-100.00,SSW,205,4.0,11.0,99,-99.99,,,-99.99,,2013-04-19 11:52:00,
2013-04-19 08:03:00,67.0,66.0,-100.00,SE,145,1.0,9.0,99,-99.99,,,-99.99,,2013-04-19 12:03:00,
2013-04-19 08:12:00,67.0,66.0,-100.00,South,180,1.0,8.0,99,-99.99,,,-99.99,,2013-04-19 12:12:00,
2013-04-19 08:22:00,67.0,66.0,-100.00,SSW,195,1.0,6.0,99,-99.99,,,-99.99,,2013-04-19 12:22:00,
2013-04-19 08:32:00,67.0,67.0,-100.00,SSE,155,2.0,7.0,99,-99.99,,,-99.99,,2013-04-19 12:32:00,
2013-04-19 08:42:00,67.0,67.0,-100.00,SE,140,1.0,11.0,99,-99.99,,,-99.99,,2013-04-19 12:42:00,
2013-04-19 08:52:00,67.0,67.0,-100.00,South,180,4.0,11.0,99,-99.99,,,-99.99,,2013-04-19 12:52:00,
2013-04-19 09:02:00,67.0,67.0,-100.00,SW,235,4.0,10.0,99,-99.99,,,-99.99,,2013-04-19 13:02:00,
2013-04-19 09:11:00,68.0,68.0,-100.00,SSW,195,6.0,14.0,99,-99.99,,,-99.99,,2013-04-19 13:11:00,
2013-04-19 09:22:00,67.0,67.0,-100.00,WSW,250,4.0,11.0,99,-99.99,,,-99.99,,2013-04-19 13:22:00,
2013-04-19 09:32:00,67.0,66.0,-100.00,South,190,4.0,9.0,99,-99.99,,,-99.99,,2013-04-19 13:32:00,
2013-04-19 09:42:00,66.0,66.0,-100.00,SSW,195,4.0,11.0,99,-99.99,,,-99.99,,2013-04-19 13:42:00,
2013-04-19 09:52:00,66.0,66.0,-100.00,South,190,4.0,13.0,99,-99.99,,,-99.99,,2013-04-19 13:52:00,
2013-04-19 10:02:00,66.0,66.0,-100.00,South,185,6.0,15.0,99,-99.99,,,-99.99,,2013-04-19 14:02:00,
2013-04-19 10:11:00,67.0,66.0,-100.00,South,180,4.0,9.0,99,-99.99,,,-99.99,,2013-04-19 14:11:00,
2013-04-19 10:22:00,67.0,67.0,-100.00,South,170,3.0,13.0,99,-99.99,,,-99.99,,2013-04-19 14:22:00,
2013-04-19 10:32:00,67.0,67.0,-100.00,South,190,5.0,11.0,99,-99.99,,,-99.99,,2013-04-19 14:32:00,
2013-04-19 10:43:00,67.0,66.0,-100.00,SW,215,6.0,11.0,99,-99.99,,,-99.99,,2013-04-19 14:43:00,
2013-04-19 10:52:00,67.0,66.0,-100.00,South,180,8.0,21.0,99,-99.99,,,-99.99,,2013-04-19 14:52:00,
2013-04-19 11:02:00,67.0,66.0,-100.00,SSW,200,5.0,14.0,99,-99.99,,,-99.99,,2013-04-19 15:02:00,
2013-04-19 11:12:00,68.0,68.0,-100.00,South,190,6.0,14.0,99,-99.99,,,-99.99,,2013-04-19 15:12:00,
2013-04-19 11:22:00,68.0,68.0,-100.00,South,190,5.0,14.0,99,-99.99,,,-99.99,,2013-04-19 15:22:00,
2013-04-19 11:33:00,69.0,69.0,-100.00,SSW,210,6.0,12.0,99,-99.99,,,-99.99,,2013-04-19 15:33:00,
2013-04-19 11:43:00,69.0,68.0,-100.00,South,190,4.0,18.0,99,-99.99,,,-99.99,,2013-04-19 15:43:00,
2013-04-19 11:52:00,68.0,68.0,-100.00,SSW,205,5.0,14.0,99,-99.99,,,-99.99,,2013-04-19 15:52:00,
2013-04-19 12:03:00,68.0,68.0,-100.00,South,175,1.0,6.0,99,-99.99,,,-99.99,,2013-04-19 16:03:00,
2013-04-19 12:13:00,67.0,67.0,-100.00,SW,230,1.0,5.0,99,-99.99,,,-99.99,,2013-04-19 16:13:00,
2013-04-19 12:23:00,67.0,67.0,-100.00,SW,225,1.0,6.0,99,-99.99,,,-99.99,,2013-04-19 16:23:00,
2013-04-19 12:33:00,67.0,67.0,-100.00,SSE,160,0.0,4.0,99,-99.99,,,-99.99,,2013-04-19 16:33:00,
2013-04-19 12:42:00,67.0,67.0,-100.00,South,185,1.0,6.0,99,-99.99,,,-99.99,,2013-04-19 16:42:00,
2013-04-19 12:52:00,68.0,67.0,-100.00,SW,220,1.0,6.0,99,-99.99,,,-99.99,,2013-04-19 16:52:00,
2013-04-19 13:02:00,68.0,67.0,-100.00,SSW,200,4.0,10.0,99,-99.99,,,-99.99,,2013-04-19 17:02:00,
2013-04-19 13:12:00,68.0,68.0,-100.00,South,185,6.0,14.0,99,-99.99,,,-99.99,,2013-04-19 17:12:00,
2013-04-19 13:22:00,68.0,68.0,-100.00,SSW,195,4.0,10.0,99,-99.99,,,-99.99,,2013-04-19 17:22:00,
2013-04-19 13:33:00,68.0,68.0,-100.00,South,185,6.0,11.0,99,-99.99,,,-99.99,,2013-04-19 17:33:00,
2013-04-19 13:43:00,68.0,68.0,-100.00,SSW,200,5.0,11.0,99,-99.99,,,-99.99,,2013-04-19 17:43:00,
2013-04-19 13:52:00,68.0,68.0,-100.00,SW,225,4.0,9.0,99,-99.99,,,-99.99,,2013-04-19 17:52:00,
2013-04-19 14:02:00,68.0,68.0,-100.00,WSW,240,4.0,11.0,99,-99.99,,,-99.99,,2013-04-19 18:02:00,
2013-04-19 14:13:00,67.0,67.0,-100.00,SSW,200,6.0,15.0,99,-99.99,,,-99.99,,2013-04-19 18:13:00,
2013-04-19 14:23:00,67.0,67.0,-100.00,SW,215,6.0,12.0,99,-99.99,,,-99.99,,2013-04-19 18:23:00,
2013-04-19 14:33:00,68.0,67.0,-100.00,SW,235,4.0,11.0,99,-99.99,,,-99.99,,2013-04-19 18:33:00,
2013-04-19 14:43:00,68.0,68.0,-100.00,SW,225,3.0,10.0,99,-99.99,,,-99.99,,2013-04-19 18:43:00,
2013-04-19 14:52:00,68.0,68.0,-100.00,SW,225,4.0,9.0,99,-99.99,,,-99.99,,2013-04-19 18:52:00,
2013-04-19 15:02:00,68.0,67.0,-100.00,SSW,200,4.0,11.0,99,-99.99,,,-99.99,,2013-04-19 19:02:00,
2013-04-19 15:11:00,67.0,67.0,-100.00,SSW,195,4.0,11.0,99,-99.99,,,-99.99,,2013-04-19 19:11:00,
2013-04-19 15:21:00,67.0,67.0,-100.00,WSW,240,5.0,10.0,99,-99.99,,,-99.99,,2013-04-19 19:21:00,
2013-04-19 15:32:00,67.0,67.0,-100.00,SSW,210,4.0,9.0,99,-99.99,,,-99.99,,2013-04-19 19:32:00,
2013-04-19 15:42:00,67.0,67.0,-100.00,SSW,205,4.0,11.0,99,-99.99,,,-99.99,,2013-04-19 19:42:00,
2013-04-19 15:52:00,67.0,66.0,-100.00,SSW,210,6.0,14.0,99,-99.99,,,-99.99,,2013-04-19 19:52:00,
2013-04-19 16:02:00,67.0,66.0,-100.00,SW,215,7.0,14.0,99,-99.99,,,-99.99,,2013-04-19 20:02:00,
2013-04-19 16:11:00,66.0,65.0,-100.00,SW,230,6.0,11.0,99,-99.99,,,-99.99,,2013-04-19 20:11:00,
2013-04-19 16:22:00,65.0,65.0,-100.00,SW,225,5.0,13.0,99,-99.99,,,-99.99,,2013-04-19 20:22:00,
2013-04-19 16:32:00,64.0,64.0,-100.00,SW,225,6.0,19.0,99,-99.99,,,-99.99,,2013-04-19 20:32:00,
2013-04-19 16:42:00,64.0,64.0,-100.00,SSW,205,6.0,15.0,99,-99.99,,,-99.99,,2013-04-19 20:42:00,
2013-04-19 16:52:00,63.0,63.0,-100.00,SW,225,6.0,23.0,99,-99.99,,,-99.99,,2013-04-19 20:52:00,
2013-04-19 17:01:00,63.0,62.0,-100.00,SSW,205,7.0,17.0,99,-99.99,,,-99.99,,2013-04-19 21:01:00,
2013-04-19 17:12:00,63.0,63.0,-100.00,SSW,210,6.0,15.0,99,-99.99,,,-99.99,,2013-04-19 21:12:00,
2013-04-19 17:21:00,63.0,62.0,-100.00,SSW,200,8.0,14.0,99,-99.99,,,-99.99,,2013-04-19 21:21:00,
2013-04-19 17:32:00,63.0,62.0,-100.00,SSW,200,8.0,14.0,99,-99.99,,,-99.99,,2013-04-19 21:32:00,
2013-04-19 17:43:00,62.0,62.0,-100.00,SSW,205,5.0,10.0,99,-99.99,,,-99.99,,2013-04-19 21:43:00,
2013-04-19 17:52:00,62.0,62.0,-100.00,SSW,200,5.0,9.0,99,-99.99,,,-99.99,,2013-04-19 21:52:00,
2013-04-19 18:02:00,62.0,62.0,-100.00,South,190,4.0,9.0,99,-99.99,,,-99.99,,2013-04-19 22:02:00,
2013-04-19 18:12:00,62.0,62.0,-100.00,SSW,200,4.0,8.0,99,-99.99,,,-99.99,,2013-04-19 22:12:00,
2013-04-19 18:23:00,61.0,61.0,-100.00,SW,230,6.0,15.0,99,-99.99,,,-99.99,,2013-04-19 22:23:00,
2013-04-19 18:33:00,61.0,61.0,-100.00,South,190,4.0,11.0,99,-99.99,,,-99.99,,2013-04-19 22:33:00,
2013-04-19 18:42:00,60.0,60.0,-100.00,SW,220,7.0,14.0,99,-99.99,,,-99.99,,2013-04-19 22:42:00,
2013-04-19 18:52:00,60.0,58.0,-100.00,SW,215,8.0,20.0,94,-99.99,,,-99.99,,2013-04-19 22:52:00,
2013-04-19 19:03:00,59.0,57.0,-100.00,SSW,200,7.0,15.0,93,-99.99,,,-99.99,,2013-04-19 23:03:00,
2013-04-19 19:11:00,59.0,58.0,-100.00,SSW,210,6.0,16.0,97,-99.99,,,-99.99,,2013-04-19 23:11:00,
2013-04-19 19:22:00,59.0,58.0,-100.00,SSW,205,5.0,15.0,99,-99.99,,,-99.99,,2013-04-19 23:22:00,
2013-04-19 19:32:00,59.0,58.0,-100.00,SSW,205,5.0,15.0,99,-99.99,,,-99.99,,2013-04-19 23:32:00,
2013-04-19 19:42:00,58.0,55.0,-100.00,South,175,4.0,10.0,90,-99.99,,,-99.99,,2013-04-19 23:42:00,
2013-04-19 19:52:00,58.0,57.0,-100.00,South,185,6.0,13.0,99,-99.99,,,-99.99,,2013-04-19 23:52:00,
2013-04-19 20:02:00,57.0,56.0,-100.00,SSW,195,8.0,16.0,95,-99.99,,,-99.99,,2013-04-20 00:02:00,
2013-04-19 20:12:00,57.0,57.0,-100.00,South,175,6.0,14.0,99,-99.99,,,-99.99,,2013-04-20 00:12:00,
2013-04-19 20:22:00,57.0,56.0,-100.00,SW,230,4.0,12.0,99,-99.99,,,-99.99,,2013-04-20 00:22:00,
2013-04-19 20:32:00,57.0,56.0,-100.00,SW,230,4.0,12.0,99,-99.99,,,-99.99,,2013-04-20 00:32:00,
2013-04-19 20:42:00,56.0,56.0,-100.00,SW,215,7.0,11.0,99,-99.99,,,-99.99,,2013-04-20 00:42:00,
2013-04-19 20:51:00,56.0,56.0,-100.00,SW,215,6.0,12.0,99,-99.99,,,-99.99,,2013-04-20 00:51:00,
2013-04-19 21:02:00,56.0,56.0,-100.00,SSW,200,6.0,11.0,99,-99.99,,,-99.99,,2013-04-20 01:02:00,
2013-04-19 21:11:00,56.0,56.0,-100.00,SW,230,4.0,10.0,99,-99.99,,,-99.99,,2013-04-20 01:11:00,
2013-04-19 21:21:00,56.0,56.0,-100.00,SW,235,4.0,8.0,99,-99.99,,,-99.99,,2013-04-20 01:21:00,
2013-04-19 21:32:00,56.0,55.0,-100.00,SW,230,4.0,7.0,99,-99.99,,,-99.99,,2013-04-20 01:32:00,
2013-04-19 21:42:00,56.0,55.0,-100.00,SSW,205,4.0,7.0,99,-99.99,,,-99.99,,2013-04-20 01:42:00,
2013-04-19 21:52:00,55.0,55.0,-100.00,SSW,205,4.0,9.0,99,-99.99,,,-99.99,,2013-04-20 01:52:00,
2013-04-19 22:02:00,55.0,55.0,-100.00,SSW,200,4.0,6.0,99,-99.99,,,-99.99,,2013-04-20 02:02:00,
2013-04-19 22:11:00,55.0,55.0,-100.00,SSW,210,3.0,7.0,99,-99.99,,,-99.99,,2013-04-20 02:11:00,
2013-04-19 22:22:00,55.0,54.0,-100.00,SW,225,3.0,6.0,99,-99.99,,,-99.99,,2013-04-20 02:22:00,
2013-04-19 22:32:00,55.0,54.0,-100.00,SW,230,3.0,6.0,99,-99.99,,,-99.99,,2013-04-20 02:32:00,
2013-04-19 22:42:00,54.0,54.0,-100.00,WSW,240,2.0,4.0,99,-99.99,,,-99.99,,2013-04-20 02:42:00,
2013-04-19 22:52:00,54.0,54.0,-100.00,SW,230,1.0,7.0,99,-99.99,,,-99.99,,2013-04-20 02:52:00,
2013-04-19 23:01:00,53.0,50.0,-100.00,WNW,295,4.0,11.0,88,-99.99,,,-99.99,,2013-04-20 03:01:00,
2013-04-19 23:11:00,53.0,47.0,-100.00,West,280,5.0,11.0,80,-99.99,,,-99.99,,2013-04-20 03:11:00,
2013-04-19 23:21:00,53.0,45.0,-100.00,West,275,9.0,16.0,72,-99.99,,,-99.99,,2013-04-20 03:21:00,
2013-04-19 23:33:00,53.0,44.0,-100.00,WNW,295,6.0,13.0,70,-99.99,,,-99.99,,2013-04-20 03:33:00,
2013-04-19 23:43:00,53.0,42.0,-100.00,WNW,285,5.0,11.0,68,-99.99,,,-99.99,,2013-04-20 03:43:00,
2013-04-19 23:52:00,52.0,41.0,-100.00,West,280,11.0,20.0,66,-99.99,,,-99.99,,2013-04-20 03:52:00,